| time (UTC) | temp F | wind direction | speed knots | gust knots | rain 1hr in | rain 24hr in | rain mn in | humidity % | barometer mb |
| 20260505140322 | 74 | 168 | 0.0 | 3.5 | 0.00 | 0.00 | 0.00 | 68 | 1017.6 |
| 20260505130246 | 70 | 82 | 0.9 | 0.9 | 0.00 | 0.00 | 0.00 | 72 | 1017.3 |
| 20260505124736 | 68 | 89 | 0.9 | 1.7 | 0.00 | 0.00 | 0.00 | 75 | 1016.9 |
| 20260505124233 | 67 | 69 | 0.9 | 1.7 | 0.00 | 0.00 | 0.00 | 75 | 1017.3 |
| 20260505123729 | 68 | 75 | 0.9 | 0.9 | 0.00 | 0.00 | 0.00 | 75 | 1017.3 |
| 20260505123226 | 67 | 52 | 0.0 | 0.0 | 0.00 | 0.00 | 0.00 | 76 | 1017.3 |
| 20260505122722 | 67 | 57 | 0.0 | 0.0 | 0.00 | 0.00 | 0.00 | 77 | 1017.3 |
| 20260505122220 | 66 | 62 | 0.0 | 0.9 | 0.00 | 0.00 | 0.00 | 78 | 1017.3 |
| 20260505121716 | 65 | 61 | 0.0 | 0.0 | 0.00 | 0.00 | 0.00 | 80 | 1016.9 |
| 20260505121213 | 64 | 69 | 0.9 | 1.7 | 0.00 | 0.00 | 0.00 | 80 | 1016.9 |
| 20260505120709 | 63 | 52 | 0.0 | 0.9 | 0.00 | 0.00 | 0.00 | 85 | 1016.9 |
| 20260505120205 | 62 | 51 | 0.0 | 0.9 | 0.00 | 0.00 | 0.00 | 85 | 1016.9 |
| 20260505115658 | 62 | 48 | 0.0 | 0.9 | 0.00 | 0.00 | 0.00 | 86 | 1016.9 |
| 20260505115157 | 61 | 63 | 0.0 | 0.9 | 0.00 | 0.00 | 0.00 | 87 | 1016.9 |
| 20260505114654 | 60 | 63 | 0.0 | 0.9 | 0.00 | 0.00 | 0.00 | 90 | 1016.9 |
| 20260505114150 | 59 | 58 | 0.0 | 0.0 | 0.00 | 0.00 | 0.00 | 91 | 1016.9 |
| 20260505113646 | 58 | 48 | 0.0 | 0.0 | 0.00 | 0.00 | 0.00 | 95 | 1016.9 |
| 20260505113143 | 57 | 57 | 0.0 | 0.0 | 0.00 | 0.00 | 0.00 | 95 | 1016.9 |
| 20260505112639 | 57 | 56 | 0.0 | 0.0 | 0.00 | 0.00 | 0.00 | 96 | 1016.9 |
| 20260505112138 | 57 | 57 | 0.0 | 0.0 | 0.00 | 0.00 | 0.00 | 96 | 1016.9 |
| 20260505111631 | 56 | 57 | 0.0 | 0.0 | 0.00 | 0.00 | 0.00 | 97 | 1016.9 |
| 20260505111127 | 56 | 58 | 0.0 | 0.0 | 0.00 | 0.00 | 0.00 | 97 | 1016.9 |
| 20260505110623 | 56 | 58 | 0.0 | 0.0 | 0.00 | 0.00 | 0.00 | 97 | 1016.9 |
| 20260505110121 | 56 | 59 | 0.0 | 0.0 | 0.00 | 0.00 | 0.00 | 97 | 1016.6 |
| 20260505102056 | 57 | 55 | 0.0 | 0.0 | 0.00 | 0.00 | 0.00 | 96 | 1016.3 |
| 20260505101555 | 57 | 56 | 0.0 | 0.9 | 0.00 | 0.00 | 0.00 | 96 | 1016.3 |
| 20260505101051 | 57 | 47 | 0.0 | 0.0 | 0.00 | 0.00 | 0.00 | 96 | 1016.3 |
| 20260505100548 | 57 | 28 | 0.0 | 0.0 | 0.00 | 0.00 | 0.00 | 96 | 1016.3 |
| 20260505100044 | 57 | 53 | 0.0 | 0.0 | 0.00 | 0.00 | 0.00 | 96 | 1016.6 |
| 20260505095541 | 57 | 55 | 0.0 | 0.0 | 0.00 | 0.00 | 0.00 | 95 | 1016.6 |
| 20260505095037 | 57 | 56 | 0.0 | 0.0 | 0.00 | 0.00 | 0.00 | 95 | 1016.3 |
| 20260505094534 | 57 | 57 | 0.0 | 0.0 | 0.00 | 0.00 | 0.00 | 95 | 1016.3 |
| 20260505094030 | 57 | 56 | 0.0 | 0.0 | 0.00 | 0.00 | 0.00 | 95 | 1016.3 |
| 20260505093527 | 57 | 56 | 0.0 | 0.0 | 0.00 | 0.00 | 0.00 | 94 | 1016.3 |
| 20260505093024 | 57 | 56 | 0.0 | 0.0 | 0.00 | 0.00 | 0.00 | 94 | 1016.3 |
| 20260505092521 | 58 | 64 | 0.0 | 0.9 | 0.00 | 0.00 | 0.00 | 94 | 1016.3 |
| 20260505092020 | 57 | 62 | 0.9 | 1.7 | 0.00 | 0.00 | 0.00 | 94 | 1016.6 |
| 20260505091517 | 57 | 36 | 0.0 | 0.0 | 0.00 | 0.00 | 0.00 | 95 | 1016.3 |
| 20260505091014 | 57 | 37 | 0.0 | 0.0 | 0.00 | 0.00 | 0.00 | 95 | 1016.3 |
| 20260505090512 | 57 | 61 | 0.0 | 0.0 | 0.00 | 0.00 | 0.00 | 96 | 1016.3 |
| 20260505090009 | 57 | 61 | 0.0 | 0.0 | 0.00 | 0.00 | 0.00 | 95 | 1016.3 |
| 20260505085507 | 57 | 61 | 0.0 | 0.0 | 0.00 | 0.00 | 0.00 | 95 | 1016.3 |
| 20260505085005 | 57 | 61 | 0.0 | 0.0 | 0.00 | 0.00 | 0.00 | 95 | 1016.3 |
| 20260505084503 | 57 | 61 | 0.0 | 0.0 | 0.00 | 0.00 | 0.00 | 95 | 1016.3 |
| 20260505084001 | 57 | 61 | 0.0 | 0.0 | 0.00 | 0.00 | 0.00 | 94 | 1016.3 |
| 20260505083458 | 57 | 61 | 0.0 | 0.0 | 0.00 | 0.00 | 0.00 | 94 | 1015.9 |
| 20260505082954 | 57 | 61 | 0.0 | 0.0 | 0.00 | 0.00 | 0.00 | 94 | 1016.3 |
| 20260505082450 | 57 | 61 | 0.0 | 0.0 | 0.00 | 0.00 | 0.00 | 93 | 1016.3 |
| 20260505081947 | 57 | 61 | 0.0 | 0.0 | 0.00 | 0.00 | 0.00 | 93 | 1016.3 |
| 20260505081444 | 58 | 61 | 0.0 | 0.0 | 0.00 | 0.00 | 0.00 | 93 | 1015.9 |
| 20260505080940 | 58 | 61 | 0.0 | 0.0 | 0.00 | 0.00 | 0.00 | 93 | 1015.9 |
| 20260505080436 | 58 | 61 | 0.0 | 0.0 | 0.00 | 0.00 | 0.00 | 92 | 1015.9 |
| 20260505075932 | 58 | 61 | 0.0 | 0.0 | 0.00 | 0.00 | 0.00 | 92 | 1015.9 |
| 20260505075429 | 59 | 61 | 0.0 | 0.0 | 0.00 | 0.00 | 0.00 | 91 | 1015.9 |
| 20260505074926 | 59 | 61 | 0.0 | 0.0 | 0.00 | 0.00 | 0.00 | 91 | 1015.9 |
| 20260505074424 | 59 | 61 | 0.0 | 0.0 | 0.00 | 0.00 | 0.00 | 90 | 1015.9 |
| 20260505073921 | 59 | 62 | 0.0 | 0.0 | 0.00 | 0.00 | 0.00 | 90 | 1016.3 |
| 20260505073418 | 59 | 61 | 0.0 | 0.0 | 0.00 | 0.00 | 0.00 | 90 | 1015.9 |
| 20260505072915 | 59 | 59 | 0.0 | 0.0 | 0.00 | 0.00 | 0.00 | 90 | 1015.9 |
| 20260505072411 | 59 | 59 | 0.0 | 0.0 | 0.00 | 0.00 | 0.00 | 90 | 1015.9 |
| 20260505071908 | 59 | 59 | 0.0 | 0.0 | 0.00 | 0.00 | 0.00 | 90 | 1015.9 |
| 20260505071404 | 59 | 60 | 0.0 | 0.0 | 0.00 | 0.00 | 0.00 | 89 | 1015.9 |
| 20260505070902 | 59 | 64 | 0.0 | 0.0 | 0.00 | 0.00 | 0.00 | 89 | 1015.9 |
| 20260505070358 | 59 | 59 | 0.0 | 0.0 | 0.00 | 0.00 | 0.00 | 89 | 1016.3 |
| 20260505065854 | 59 | 59 | 0.0 | 0.0 | 0.00 | 0.00 | 0.00 | 89 | 1016.3 |
| 20260505065351 | 59 | 59 | 0.0 | 0.0 | 0.00 | 0.00 | 0.00 | 88 | 1016.3 |
| 20260505064848 | 59 | 59 | 0.0 | 0.0 | 0.00 | 0.00 | 0.00 | 88 | 1016.3 |
| 20260505064345 | 60 | 60 | 0.0 | 0.0 | 0.00 | 0.00 | 0.00 | 88 | 1016.3 |
| 20260505063843 | 60 | 59 | 0.0 | 0.0 | 0.00 | 0.00 | 0.00 | 87 | 1016.3 |
| 20260505063338 | 60 | 59 | 0.0 | 0.0 | 0.00 | 0.00 | 0.00 | 86 | 1016.3 |
| 20260505062835 | 60 | 59 | 0.0 | 0.0 | 0.00 | 0.00 | 0.00 | 86 | 1016.6 |
| 20260505062333 | 60 | 58 | 0.0 | 0.0 | 0.00 | 0.00 | 0.00 | 86 | 1016.6 |
| 20260505061829 | 60 | 59 | 0.0 | 0.0 | 0.00 | 0.00 | 0.00 | 86 | 1016.3 |
| 20260505061328 | 60 | 60 | 0.0 | 0.0 | 0.00 | 0.00 | 0.00 | 85 | 1016.6 |
| 20260505060825 | 60 | 57 | 0.0 | 0.0 | 0.00 | 0.00 | 0.00 | 85 | 1016.6 |
| 20260505060322 | 60 | 56 | 0.0 | 0.0 | 0.00 | 0.00 | 0.00 | 84 | 1016.9 |
| 20260505055817 | 61 | 56 | 0.0 | 0.0 | 0.00 | 0.00 | 0.00 | 84 | 1016.6 |
| 20260505055313 | 61 | 53 | 0.0 | 0.0 | 0.00 | 0.00 | 0.00 | 83 | 1016.9 |
| 20260505054811 | 61 | 53 | 0.0 | 0.0 | 0.00 | 0.00 | 0.00 | 83 | 1016.9 |
| 20260505054308 | 61 | 60 | 0.0 | 0.0 | 0.00 | 0.00 | 0.00 | 82 | 1016.9 |
| 20260505053807 | 61 | 62 | 0.0 | 0.0 | 0.00 | 0.00 | 0.00 | 82 | 1016.9 |
| 20260505053303 | 62 | 65 | 0.0 | 0.0 | 0.00 | 0.00 | 0.00 | 81 | 1016.9 |
| 20260505052800 | 62 | 55 | 0.0 | 0.0 | 0.00 | 0.00 | 0.00 | 81 | 1016.9 |
| 20260505052257 | 62 | 58 | 0.0 | 0.0 | 0.00 | 0.00 | 0.00 | 81 | 1016.9 |
| 20260505051754 | 62 | 58 | 0.0 | 0.0 | 0.00 | 0.00 | 0.00 | 80 | 1016.9 |
| 20260505051252 | 62 | 74 | 0.0 | 0.0 | 0.00 | 0.00 | 0.00 | 80 | 1016.9 |
| 20260505050749 | 62 | 64 | 0.0 | 0.0 | 0.00 | 0.00 | 0.00 | 81 | 1016.9 |
| 20260505050248 | 62 | 59 | 0.0 | 0.0 | 0.00 | 0.00 | 0.00 | 79 | 1017.3 |
| 20260505041718 | 61 | 64 | 0.0 | 0.9 | 0.00 | 0.00 | 0.00 | 78 | 1017.3 |
| 20260505041215 | 61 | 61 | 0.0 | 0.0 | 0.00 | 0.00 | 0.00 | 78 | 1017.3 |
| 20260505040712 | 61 | 62 | 0.0 | 0.0 | 0.00 | 0.00 | 0.00 | 78 | 1017.3 |
| 20260505040209 | 61 | 61 | 0.0 | 0.0 | 0.00 | 0.00 | 0.00 | 79 | 1017.3 |
| 20260505035707 | 62 | 62 | 0.0 | 0.0 | 0.00 | 0.00 | 0.00 | 77 | 1017.3 |
| 20260505035203 | 62 | 61 | 0.0 | 0.0 | 0.00 | 0.00 | 0.00 | 76 | 1017.3 |
| 20260505034659 | 62 | 60 | 0.0 | 0.0 | 0.00 | 0.00 | 0.00 | 74 | 1017.6 |
| 20260505034156 | 62 | 60 | 0.0 | 0.0 | 0.00 | 0.00 | 0.00 | 73 | 1017.6 |
| 20260505033652 | 62 | 72 | 0.0 | 0.0 | 0.00 | 0.00 | 0.00 | 72 | 1017.6 |
| 20260505033151 | 62 | 60 | 0.0 | 0.0 | 0.00 | 0.00 | 0.00 | 73 | 1017.3 |
| 20260505032648 | 62 | 58 | 0.0 | 0.0 | 0.00 | 0.00 | 0.00 | 72 | 1017.3 |
| 20260505032144 | 63 | 59 | 0.0 | 0.0 | 0.00 | 0.00 | 0.00 | 72 | 1017.6 |
| 20260505031642 | 63 | 57 | 0.0 | 0.0 | 0.00 | 0.00 | 0.00 | 72 | 1017.6 |
| 20260505031138 | 64 | 62 | 0.0 | 0.0 | 0.00 | 0.00 | 0.00 | 71 | 1017.6 |
| 20260505030635 | 64 | 61 | 0.0 | 0.9 | 0.00 | 0.00 | 0.00 | 69 | 1017.6 |
| 20260505030131 | 64 | 59 | 0.0 | 0.9 | 0.00 | 0.00 | 0.00 | 68 | 1017.3 |
| 20260505025627 | 64 | 73 | 0.0 | 0.0 | 0.00 | 0.00 | 0.00 | 68 | 1017.3 |
| 20260505025126 | 64 | 125 | 1.7 | 2.6 | 0.00 | 0.00 | 0.00 | 68 | 1017.3 |
| 20260505024623 | 64 | 62 | 0.0 | 1.7 | 0.00 | 0.00 | 0.00 | 68 | 1017.3 |
| 20260505024120 | 64 | 72 | 0.9 | 2.6 | 0.00 | 0.00 | 0.00 | 67 | 1017.3 |
| 20260505023617 | 62 | 117 | 0.9 | 1.7 | 0.00 | 0.00 | 0.00 | 70 | 1016.9 |
| 20260505023115 | 61 | 61 | 0.9 | 2.6 | 0.00 | 0.00 | 0.00 | 73 | 1016.9 |
| 20260505022612 | 61 | 59 | 0.0 | 0.0 | 0.00 | 0.00 | 0.00 | 71 | 1016.9 |
| 20260505022109 | 61 | 58 | 0.0 | 0.0 | 0.00 | 0.00 | 0.00 | 72 | 1016.9 |
| 20260505021605 | 61 | 58 | 0.0 | 0.0 | 0.00 | 0.00 | 0.00 | 72 | 1016.9 |
| 20260505021102 | 62 | 58 | 0.0 | 0.0 | 0.00 | 0.00 | 0.00 | 71 | 1016.6 |
| 20260505020603 | 62 | 58 | 0.0 | 0.0 | 0.00 | 0.00 | 0.00 | 70 | 1016.6 |
| 20260505020059 | 62 | 58 | 0.0 | 0.0 | 0.00 | 0.00 | 0.00 | 72 | 1016.6 |
| 20260505015556 | 63 | 59 | 0.0 | 0.0 | 0.00 | 0.00 | 0.00 | 71 | 1016.6 |
| 20260505015053 | 63 | 59 | 0.0 | 0.0 | 0.00 | 0.00 | 0.00 | 69 | 1016.6 |
| 20260505014550 | 63 | 59 | 0.0 | 0.0 | 0.00 | 0.00 | 0.00 | 65 | 1016.6 |
| 20260505014047 | 63 | 59 | 0.0 | 0.0 | 0.00 | 0.00 | 0.00 | 66 | 1016.6 |
| 20260505013544 | 64 | 59 | 0.0 | 0.0 | 0.00 | 0.00 | 0.00 | 67 | 1016.3 |
| 20260505013042 | 64 | 57 | 0.0 | 0.0 | 0.00 | 0.00 | 0.00 | 66 | 1016.3 |
| 20260505012540 | 64 | 58 | 0.0 | 0.0 | 0.00 | 0.00 | 0.00 | 66 | 1016.3 |
| 20260505012036 | 65 | 59 | 0.0 | 0.0 | 0.00 | 0.00 | 0.00 | 65 | 1016.3 |
| 20260505011531 | 65 | 59 | 0.0 | 0.0 | 0.00 | 0.00 | 0.00 | 63 | 1016.3 |
| 20260505011029 | 65 | 59 | 0.0 | 0.0 | 0.00 | 0.00 | 0.00 | 63 | 1016.3 |
| 20260505010524 | 66 | 60 | 0.0 | 0.0 | 0.00 | 0.00 | 0.00 | 61 | 1016.3 |
| 20260505010021 | 66 | 59 | 0.0 | 0.0 | 0.00 | 0.00 | 0.00 | 60 | 1016.3 |
| 20260505005517 | 66 | 61 | 0.0 | 0.0 | 0.00 | 0.00 | 0.00 | 61 | 1016.3 |
| 20260505005015 | 66 | 57 | 0.0 | 0.0 | 0.00 | 0.00 | 0.00 | 62 | 1016.3 |
| 20260505004512 | 67 | 62 | 0.0 | 0.0 | 0.00 | 0.00 | 0.00 | 61 | 1016.3 |
| 20260505004008 | 67 | 67 | 0.0 | 0.0 | 0.00 | 0.00 | 0.00 | 60 | 1015.9 |
| 20260505003506 | 68 | 66 | 0.0 | 0.0 | 0.00 | 0.00 | 0.00 | 59 | 1016.3 |
| 20260505003003 | 68 | 65 | 0.0 | 0.0 | 0.00 | 0.00 | 0.00 | 58 | 1015.9 |
| 20260505002458 | 69 | 69 | 0.0 | 0.0 | 0.00 | 0.00 | 0.00 | 57 | 1016.3 |
| 20260505001957 | 69 | 70 | 0.0 | 0.0 | 0.00 | 0.00 | 0.00 | 56 | 1015.9 |
| 20260505001454 | 70 | 69 | 0.0 | 0.0 | 0.00 | 0.00 | 0.00 | 54 | 1015.9 |
| 20260505000950 | 70 | 66 | 0.0 | 0.0 | 0.00 | 0.00 | 0.00 | 52 | 1015.9 |
| 20260505000449 | 71 | 64 | 0.0 | 0.0 | 0.00 | 0.00 | 0.00 | 51 | 1015.9 |
| 20260504235945 | 71 | 67 | 0.0 | 0.0 | 0.00 | 0.00 | 0.00 | 50 | 1015.9 |
| 20260504235442 | 72 | 59 | 0.0 | 0.0 | 0.00 | 0.00 | 0.00 | 48 | 1015.9 |
| 20260504234939 | 72 | 59 | 0.0 | 0.0 | 0.00 | 0.00 | 0.00 | 51 | 1015.9 |
| 20260504234436 | 72 | 58 | 0.0 | 0.0 | 0.00 | 0.00 | 0.00 | 52 | 1015.9 |
| 20260504233932 | 73 | 65 | 0.0 | 0.9 | 0.00 | 0.00 | 0.00 | 49 | 1015.9 |
| 20260504233428 | 73 | 61 | 0.0 | 0.9 | 0.00 | 0.00 | 0.00 | 51 | 1015.9 |
| 20260504232925 | 75 | 72 | 0.9 | 0.9 | 0.00 | 0.00 | 0.00 | 48 | 1015.9 |
| 20260504232423 | 75 | 44 | 0.0 | 0.0 | 0.00 | 0.00 | 0.00 | 47 | 1015.9 |
| 20260504231920 | 75 | 56 | 0.0 | 0.0 | 0.00 | 0.00 | 0.00 | 45 | 1015.9 |
| 20260504231416 | 75 | 55 | 0.0 | 0.9 | 0.00 | 0.00 | 0.00 | 46 | 1015.6 |
| 20260504230912 | 76 | 49 | 0.0 | 0.9 | 0.00 | 0.00 | 0.00 | 49 | 1015.6 |
| 20260504230409 | 77 | 77 | 0.9 | 0.9 | 0.00 | 0.00 | 0.00 | 43 | 1015.6 |
| 20260504225908 | 77 | 65 | 0.9 | 0.9 | 0.00 | 0.00 | 0.00 | 44 | 1015.9 |
| 20260504225405 | 77 | 68 | 0.0 | 0.0 | 0.00 | 0.00 | 0.00 | 38 | 1015.6 |
| 20260504224902 | 78 | 95 | 0.9 | 1.7 | 0.00 | 0.00 | 0.00 | 39 | 1015.6 |
| 20260504224358 | 78 | 67 | 0.9 | 1.7 | 0.00 | 0.00 | 0.00 | 37 | 1015.6 |
| 20260504223855 | 78 | 53 | 0.9 | 0.9 | 0.00 | 0.00 | 0.00 | 36 | 1015.9 |
| 20260504223356 | 79 | 53 | 0.0 | 0.0 | 0.00 | 0.00 | 0.00 | 35 | 1015.6 |
| 20260504222852 | 79 | 72 | 0.0 | 1.7 | 0.00 | 0.00 | 0.00 | 38 | 1015.6 |
| 20260504222349 | 79 | 70 | 0.9 | 0.9 | 0.00 | 0.00 | 0.00 | 36 | 1015.6 |
| 20260504221848 | 80 | 73 | 0.9 | 0.9 | 0.00 | 0.00 | 0.00 | 38 | 1015.6 |
| 20260504221344 | 80 | 37 | 0.9 | 1.7 | 0.00 | 0.00 | 0.00 | 35 | 1015.6 |
| 20260504220842 | 80 | 42 | 0.9 | 1.7 | 0.00 | 0.00 | 0.00 | 35 | 1015.6 |
| 20260504220338 | 80 | 57 | 1.7 | 1.7 | 0.00 | 0.00 | 0.00 | 35 | 1015.6 |
| 20260504215835 | 79 | 15 | 1.7 | 1.7 | 0.00 | 0.00 | 0.00 | 34 | 1015.6 |
| 20260504215332 | 80 | 98 | 1.7 | 2.6 | 0.00 | 0.00 | 0.00 | 35 | 1015.6 |
| 20260504214828 | 80 | 57 | 0.0 | 1.7 | 0.00 | 0.00 | 0.00 | 34 | 1015.6 |
| 20260504214325 | 81 | 120 | 1.7 | 1.7 | 0.00 | 0.00 | 0.00 | 36 | 1015.6 |
| 20260504213821 | 81 | 83 | 1.7 | 1.7 | 0.00 | 0.00 | 0.00 | 40 | 1015.6 |
| 20260504213317 | 81 | 86 | 0.9 | 0.9 | 0.00 | 0.00 | 0.00 | 33 | 1015.6 |
| 20260504212815 | 80 | 27 | 0.9 | 1.7 | 0.00 | 0.00 | 0.00 | 35 | 1015.6 |
| 20260504212311 | 81 | 65 | 0.9 | 1.7 | 0.00 | 0.00 | 0.00 | 35 | 1015.6 |
| 20260504211809 | 81 | 90 | 0.9 | 0.9 | 0.00 | 0.00 | 0.00 | 33 | 1015.9 |
| 20260504211304 | 82 | 171 | 1.7 | 1.7 | 0.00 | 0.00 | 0.00 | 33 | 1015.9 |
| 20260504210802 | 80 | 60 | 0.9 | 0.9 | 0.00 | 0.00 | 0.00 | 34 | 1015.9 |
| 20260504210259 | 80 | 142 | 1.7 | 2.6 | 0.00 | 0.00 | 0.00 | 33 | 1015.9 |
| 20260504205756 | 81 | 35 | 0.0 | 3.5 | 0.00 | 0.00 | 0.00 | 33 | 1015.9 |
| 20260504205254 | 81 | 67 | 0.9 | 1.7 | 0.00 | 0.00 | 0.00 | 33 | 1015.9 |
| 20260504204752 | 81 | 40 | 0.9 | 1.7 | 0.00 | 0.00 | 0.00 | 32 | 1015.9 |
| 20260504204250 | 80 | 39 | 0.0 | 3.5 | 0.00 | 0.00 | 0.00 | 32 | 1016.3 |
| 20260504203749 | 80 | 46 | 0.0 | 2.6 | 0.00 | 0.00 | 0.00 | 33 | 1016.3 |
| 20260504203246 | 80 | 75 | 0.9 | 1.7 | 0.00 | 0.00 | 0.00 | 33 | 1016.3 |
| 20260504202741 | 80 | 147 | 2.6 | 3.5 | 0.00 | 0.00 | 0.00 | 34 | 1016.3 |
| 20260504202239 | 79 | 55 | 0.9 | 2.6 | 0.00 | 0.00 | 0.00 | 35 | 1016.3 |
| 20260504201736 | 81 | 33 | 0.9 | 1.7 | 0.00 | 0.00 | 0.00 | 34 | 1016.3 |
| 20260504201233 | 80 | 40 | 0.9 | 2.6 | 0.00 | 0.00 | 0.00 | 35 | 1016.3 |
| 20260504200731 | 81 | 166 | 3.5 | 5.2 | 0.00 | 0.00 | 0.00 | 34 | 1016.3 |
| 20260504200226 | 81 | 80 | 1.7 | 1.7 | 0.00 | 0.00 | 0.00 | 34 | 1016.3 |
| 20260504195723 | 80 | 344 | 2.6 | 3.5 | 0.00 | 0.00 | 0.00 | 34 | 1016.6 |
| 20260504195219 | 80 | 40 | 0.9 | 2.6 | 0.00 | 0.00 | 0.00 | 34 | 1016.6 |
| 20260504194716 | 82 | 145 | 3.5 | 6.1 | 0.00 | 0.00 | 0.00 | 34 | 1016.6 |
| 20260504194212 | 80 | 10 | 0.0 | 3.5 | 0.00 | 0.00 | 0.00 | 35 | 1016.6 |
| 20260504193709 | 79 | 358 | 1.7 | 3.5 | 0.00 | 0.00 | 0.00 | 33 | 1016.6 |
| 20260504193206 | 80 | 59 | 0.9 | 3.5 | 0.00 | 0.00 | 0.00 | 35 | 1016.6 |
| 20260504192705 | 79 | 55 | 1.7 | 1.7 | 0.00 | 0.00 | 0.00 | 33 | 1016.9 |
| 20260504192202 | 80 | 43 | 0.9 | 5.2 | 0.00 | 0.00 | 0.00 | 34 | 1016.9 |
| 20260504191701 | 79 | 42 | 0.9 | 3.5 | 0.00 | 0.00 | 0.00 | 31 | 1016.9 |
| 20260504191156 | 79 | 145 | 0.0 | 2.6 | 0.00 | 0.00 | 0.00 | 33 | 1016.9 |
| 20260504190652 | 79 | 76 | 1.7 | 2.6 | 0.00 | 0.00 | 0.00 | 32 | 1016.9 |
| 20260504190149 | 80 | 102 | 1.7 | 2.6 | 0.00 | 0.00 | 0.00 | 33 | 1017.3 |
| 20260504185646 | 79 | 78 | 1.7 | 3.5 | 0.00 | 0.00 | 0.00 | 34 | 1017.3 |
| 20260504185142 | 81 | 335 | 0.9 | 1.7 | 0.00 | 0.00 | 0.00 | 30 | 1017.3 |
| 20260504184638 | 80 | 337 | 1.7 | 1.7 | 0.00 | 0.00 | 0.00 | 32 | 1017.6 |
| 20260504184133 | 79 | 314 | 0.9 | 1.7 | 0.00 | 0.00 | 0.00 | 32 | 1017.6 |
| 20260504183630 | 79 | 79 | 1.7 | 3.5 | 0.00 | 0.00 | 0.00 | 31 | 1017.6 |
| 20260504183128 | 78 | 71 | 0.9 | 1.7 | 0.00 | 0.00 | 0.00 | 32 | 1017.6 |
| 20260504182625 | 78 | 41 | 1.7 | 3.5 | 0.00 | 0.00 | 0.00 | 34 | 1018.0 |
| 20260504182123 | 78 | 23 | 0.9 | 5.2 | 0.00 | 0.00 | 0.00 | 33 | 1018.0 |
| 20260504181620 | 78 | 44 | 0.0 | 6.1 | 0.00 | 0.00 | 0.00 | 36 | 1018.0 |
| 20260504181117 | 77 | 39 | 0.9 | 5.2 | 0.00 | 0.00 | 0.00 | 36 | 1018.0 |
| 20260504180616 | 77 | 20 | 0.9 | 6.1 | 0.00 | 0.00 | 0.00 | 34 | 1018.0 |
| 20260504180115 | 77 | 3 | 2.6 | 3.5 | 0.00 | 0.00 | 0.00 | 34 | 1018.0 |
| 20260504175612 | 78 | 355 | 5.2 | 7.8 | 0.00 | 0.00 | 0.00 | 35 | 1018.0 |
| 20260504175108 | 78 | 46 | 2.6 | 3.5 | 0.00 | 0.00 | 0.00 | 35 | 1018.0 |
| 20260504174607 | 77 | 34 | 0.0 | 5.2 | 0.00 | 0.00 | 0.00 | 37 | 1018.0 |
| 20260504174103 | 77 | 87 | 1.7 | 5.2 | 0.00 | 0.00 | 0.00 | 34 | 1018.3 |
| 20260504173559 | 77 | 33 | 0.9 | 2.6 | 0.00 | 0.00 | 0.00 | 37 | 1018.0 |
| 20260504173058 | 77 | 331 | 0.9 | 1.7 | 0.00 | 0.00 | 0.00 | 36 | 1018.0 |
| 20260504172553 | 77 | 43 | 0.9 | 2.6 | 0.00 | 0.00 | 0.00 | 35 | 1018.0 |
| 20260504172050 | 77 | 351 | 7.8 | 8.7 | 0.00 | 0.00 | 0.00 | 40 | 1018.0 |
| 20260504171547 | 77 | 6 | 1.7 | 3.5 | 0.00 | 0.00 | 0.00 | 37 | 1018.0 |
| 20260504171044 | 76 | 52 | 1.7 | 2.6 | 0.00 | 0.00 | 0.00 | 38 | 1018.3 |
| 20260504170539 | 76 | 17 | 2.6 | 7.8 | 0.00 | 0.00 | 0.00 | 36 | 1018.0 |
| 20260504150923 | 74 | 10 | 4.3 | 6.1 | 0.00 | 0.00 | 0.00 | 36 | 1019.0 |
| 20260504150420 | 73 | 28 | 0.9 | 2.6 | 0.00 | 0.00 | 0.00 | 33 | 1019.0 |